Location: Pine Mountain Observatory
(43.7910°N, 120.9377°W)
Time: 11:51:53
(UTC-08:00)

OTV 5 (USA 277) - Pass Details

Date: 19 October 2019
Orbit: 310 x 324 km, 54.5° (Epoch: 17 October)

Event Time Altitude Azimuth Distance (km) Brightness Sun altitude
Exits shadow 05:24:59 31° 72° (ENE) 596 ? -22.0°
Drops below altitude 10° 05:26:50 10° 104° (ESE) 1,227 ? -21.6°
Sets 05:28:51 0° 112° (ESE) 2,053 ? -21.3°
